Time,TemperatureF,DewpointF,PressureIn,WindDirection,WindDirectionDegrees,WindSpeedMPH,WindSpeedGustMPH,Humidity,HourlyPrecipIn,Conditions,Clouds,dailyrainin,SoftwareType,DateUTC
2013-03-02 00:00:00,24.7,23.0,29.89,WNW,289,6.0,7.0,91,0.00,,,0.02,weatherlink.com 1.10,2013-03-02 05:00:00,
2013-03-02 00:15:00,24.7,23.0,29.89,WNW,299,2.0,6.0,92,0.00,,,0.02,weatherlink.com 1.10,2013-03-02 05:15:00,
2013-03-02 00:30:00,24.9,23.0,29.89,NW,309,4.0,6.0,92,0.00,,,0.02,weatherlink.com 1.10,2013-03-02 05:30:00,
2013-03-02 00:45:00,25.0,23.0,29.89,NW,309,3.0,6.0,93,0.00,,,0.02,weatherlink.com 1.10,2013-03-02 05:45:00,
2013-03-02 01:00:00,25.2,24.0,29.90,NW,323,4.0,7.0,93,0.00,,,0.02,weatherlink.com 1.10,2013-03-02 06:00:00,
2013-03-02 01:15:00,25.2,24.0,29.89,NW,307,4.0,7.0,93,0.00,,,0.02,weatherlink.com 1.10,2013-03-02 06:15:00,
2013-03-02 01:30:00,25.1,25.0,29.90,NW,324,2.0,9.0,100,0.00,,,0.02,weatherlink.com 1.10,2013-03-02 06:30:00,
2013-03-02 01:45:00,25.0,23.0,29.89,NNW,330,7.0,10.0,92,0.00,,,0.02,weatherlink.com 1.10,2013-03-02 06:45:00,
2013-03-02 02:00:00,25.0,23.0,29.90,NNW,345,5.0,6.0,92,0.00,,,0.02,weatherlink.com 1.10,2013-03-02 07:00:00,
2013-03-02 02:15:00,24.9,23.0,29.89,North,354,4.0,7.0,92,0.00,,,0.02,weatherlink.com 1.10,2013-03-02 07:15:00,
2013-03-02 02:30:00,24.8,23.0,29.89,NNW,335,7.0,8.0,92,0.00,,,0.02,weatherlink.com 1.10,2013-03-02 07:30:00,
2013-03-02 02:45:00,24.7,23.0,29.89,NNW,328,2.0,8.0,92,0.00,,,0.02,weatherlink.com 1.10,2013-03-02 07:45:00,
2013-03-02 03:00:00,24.5,22.0,29.89,NNW,330,6.0,9.0,91,0.00,,,0.02,weatherlink.com 1.10,2013-03-02 08:00:00,
2013-03-02 03:15:00,24.3,22.0,29.89,NNW,337,3.0,8.0,91,0.00,,,0.02,weatherlink.com 1.10,2013-03-02 08:15:00,
2013-03-02 03:30:00,24.1,22.0,29.89,NNW,330,7.0,9.0,91,0.00,,,0.02,weatherlink.com 1.10,2013-03-02 08:30:00,
2013-03-02 03:45:00,24.0,22.0,29.89,NNW,332,4.0,8.0,91,0.00,,,0.02,weatherlink.com 1.10,2013-03-02 08:45:00,
2013-03-02 04:00:00,23.8,22.0,29.90,NW,310,5.0,7.0,91,0.00,,,0.02,weatherlink.com 1.10,2013-03-02 09:00:00,
2013-03-02 04:15:00,23.8,22.0,29.90,NW,323,5.0,11.0,91,0.00,,,0.02,weatherlink.com 1.10,2013-03-02 09:15:00,
2013-03-02 04:30:00,23.7,22.0,29.89,NW,309,6.0,8.0,91,0.00,,,0.02,weatherlink.com 1.10,2013-03-02 09:30:00,
2013-03-02 04:45:00,23.5,21.0,29.89,NNW,328,4.0,9.0,90,0.00,,,0.02,weatherlink.com 1.10,2013-03-02 09:45:00,
2013-03-02 05:00:00,23.4,21.0,29.90,NNW,332,5.0,9.0,90,0.00,,,0.02,weatherlink.com 1.10,2013-03-02 10:00:00,
2013-03-02 05:15:00,23.3,21.0,29.90,NW,320,5.0,9.0,89,0.00,,,0.02,weatherlink.com 1.10,2013-03-02 10:15:00,
2013-03-02 05:30:00,23.1,20.0,29.90,NNW,332,7.0,11.0,89,0.00,,,0.02,weatherlink.com 1.10,2013-03-02 10:30:00,
2013-03-02 05:45:00,22.9,20.0,29.90,NW,304,7.0,11.0,88,0.00,,,0.02,weatherlink.com 1.10,2013-03-02 10:45:00,
2013-03-02 06:00:00,22.8,20.0,29.90,NW,314,3.0,10.0,88,0.00,,,0.02,weatherlink.com 1.10,2013-03-02 11:00:00,
2013-03-02 06:15:00,22.6,20.0,29.90,NW,313,8.0,11.0,88,0.00,,,0.02,weatherlink.com 1.10,2013-03-02 11:15:00,
2013-03-02 06:30:00,22.5,20.0,29.91,NW,324,5.0,10.0,88,0.00,,,0.02,weatherlink.com 1.10,2013-03-02 11:30:00,
2013-03-02 06:45:00,22.5,20.0,29.91,NW,315,4.0,12.0,88,0.00,,,0.02,weatherlink.com 1.10,2013-03-02 11:45:00,
2013-03-02 07:00:00,22.4,19.0,29.91,WNW,296,6.0,13.0,88,0.00,,,0.02,weatherlink.com 1.10,2013-03-02 12:00:00,
2013-03-02 07:15:00,22.2,19.0,29.92,WNW,303,8.0,14.0,88,0.00,,,0.02,weatherlink.com 1.10,2013-03-02 12:15:00,
2013-03-02 07:30:00,22.2,19.0,29.92,North,354,6.0,12.0,88,0.00,,,0.02,weatherlink.com 1.10,2013-03-02 12:30:00,
2013-03-02 07:45:00,22.1,19.0,29.92,NNW,327,9.0,11.0,88,0.00,,,0.02,weatherlink.com 1.10,2013-03-02 12:45:00,
2013-03-02 08:00:00,22.0,19.0,29.93,NW,324,3.0,12.0,88,0.00,,,0.02,weatherlink.com 1.10,2013-03-02 13:00:00,
2013-03-02 08:15:00,22.0,19.0,29.93,NNW,337,4.0,11.0,87,0.00,,,0.00,weatherlink.com 1.10,2013-03-02 13:15:00,
2013-03-02 08:30:00,22.0,19.0,29.93,NW,320,5.0,9.0,88,0.00,,,0.00,weatherlink.com 1.10,2013-03-02 13:30:00,
2013-03-02 08:45:00,22.2,19.0,29.92,NW,316,3.0,9.0,88,0.00,,,0.00,weatherlink.com 1.10,2013-03-02 13:45:00,
2013-03-02 09:00:00,22.4,19.0,29.93,North,4,5.0,7.0,88,0.00,,,0.00,weatherlink.com 1.10,2013-03-02 14:00:00,
2013-03-02 09:16:00,22.3,19.0,29.93,NW,314,8.0,10.0,88,0.00,,,0.00,weatherlink.com 1.10,2013-03-02 14:16:00,
2013-03-02 09:31:00,22.4,19.0,29.92,NW,320,3.0,9.0,88,0.00,,,0.00,weatherlink.com 1.10,2013-03-02 14:31:00,
2013-03-02 09:46:00,22.9,20.0,29.91,NW,326,3.0,7.0,88,0.00,,,0.00,weatherlink.com 1.10,2013-03-02 14:46:00,
2013-03-02 10:01:00,22.9,20.0,29.91,NW,326,2.0,9.0,88,0.00,,,0.00,weatherlink.com 1.10,2013-03-02 15:01:00,
2013-03-02 10:16:00,23.0,20.0,29.91,NW,313,6.0,10.0,87,0.00,,,0.00,weatherlink.com 1.10,2013-03-02 15:16:00,
2013-03-02 10:31:00,22.9,19.0,29.91,NNW,335,6.0,9.0,86,0.00,,,0.00,weatherlink.com 1.10,2013-03-02 15:31:00,
2013-03-02 10:46:00,23.3,20.0,29.91,WNW,302,6.0,10.0,86,0.00,,,0.00,weatherlink.com 1.10,2013-03-02 15:46:00,
2013-03-02 11:01:00,23.4,20.0,29.91,WNW,298,8.0,11.0,85,0.00,,,0.00,weatherlink.com 1.10,2013-03-02 16:01:00,
2013-03-02 11:16:00,23.3,19.0,29.91,NW,321,6.0,13.0,84,0.00,,,0.00,weatherlink.com 1.10,2013-03-02 16:16:00,
2013-03-02 11:31:00,23.5,19.0,29.91,NNW,331,7.0,12.0,84,0.00,,,0.00,weatherlink.com 1.10,2013-03-02 16:31:00,
2013-03-02 11:46:00,23.0,19.0,29.90,NNW,332,7.0,13.0,84,0.00,,,0.00,weatherlink.com 1.10,2013-03-02 16:46:00,
2013-03-02 12:01:00,23.1,19.0,29.90,NNW,327,8.0,12.0,84,0.00,,,0.00,weatherlink.com 1.10,2013-03-02 17:01:00,
2013-03-02 12:16:00,23.4,19.0,29.90,NW,318,7.0,11.0,84,0.00,,,0.00,weatherlink.com 1.10,2013-03-02 17:16:00,
2013-03-02 12:31:00,23.5,19.0,29.89,North,349,7.0,12.0,84,0.00,,,0.00,weatherlink.com 1.10,2013-03-02 17:31:00,
2013-03-02 12:46:00,23.6,20.0,29.89,NW,312,7.0,10.0,85,0.00,,,0.00,weatherlink.com 1.10,2013-03-02 17:46:00,
2013-03-02 13:01:00,23.5,20.0,29.89,NW,317,7.0,14.0,86,0.00,,,0.00,weatherlink.com 1.10,2013-03-02 18:01:00,
2013-03-02 13:16:00,23.6,20.0,29.89,NNW,335,7.0,14.0,86,0.00,,,0.00,weatherlink.com 1.10,2013-03-02 18:16:00,
2013-03-02 13:31:00,23.9,20.0,29.89,NNW,328,5.0,12.0,86,0.00,,,0.00,weatherlink.com 1.10,2013-03-02 18:31:00,
2013-03-02 13:46:00,24.1,20.0,29.88,NNW,335,6.0,9.0,85,0.00,,,0.00,weatherlink.com 1.10,2013-03-02 18:46:00,
2013-03-02 14:01:00,24.0,20.0,29.88,NW,326,3.0,11.0,84,0.00,,,0.00,weatherlink.com 1.10,2013-03-02 19:01:00,
2013-03-02 14:16:00,23.8,20.0,29.88,WNW,302,7.0,10.0,85,0.00,,,0.00,weatherlink.com 1.10,2013-03-02 19:16:00,
2013-03-02 14:31:00,24.0,20.0,29.88,NW,324,3.0,10.0,86,0.00,,,0.00,weatherlink.com 1.10,2013-03-02 19:31:00,
2013-03-02 14:46:00,24.0,20.0,29.88,NNW,336,5.0,11.0,85,0.00,,,0.00,weatherlink.com 1.10,2013-03-02 19:46:00,
2013-03-02 15:01:00,23.9,20.0,29.88,NNW,334,5.0,11.0,86,0.00,,,0.00,weatherlink.com 1.10,2013-03-02 20:01:00,
2013-03-02 15:16:00,23.9,20.0,29.87,NW,322,7.0,9.0,86,0.00,,,0.00,weatherlink.com 1.10,2013-03-02 20:16:00,
2013-03-02 15:31:00,24.0,20.0,29.87,NW,326,3.0,13.0,86,0.00,,,0.00,weatherlink.com 1.10,2013-03-02 20:31:00,
2013-03-02 15:46:00,23.7,20.0,29.86,NW,313,10.0,16.0,85,0.00,,,0.00,weatherlink.com 1.10,2013-03-02 20:46:00,
2013-03-02 16:01:00,23.8,20.0,29.87,WNW,286,11.0,15.0,86,0.00,,,0.00,weatherlink.com 1.10,2013-03-02 21:01:00,
2013-03-02 16:16:00,23.8,20.0,29.87,NW,321,11.0,13.0,85,0.00,,,0.00,weatherlink.com 1.10,2013-03-02 21:16:00,
2013-03-02 16:31:00,23.7,20.0,29.87,WNW,303,10.0,12.0,86,0.00,,,0.00,weatherlink.com 1.10,2013-03-02 21:31:00,
2013-03-02 16:46:00,23.4,20.0,29.87,WNW,297,8.0,13.0,86,0.00,,,0.00,weatherlink.com 1.10,2013-03-02 21:46:00,
2013-03-02 17:01:00,23.3,20.0,29.88,NW,320,6.0,15.0,86,0.00,,,0.00,weatherlink.com 1.10,2013-03-02 22:01:00,
2013-03-02 17:16:00,23.2,20.0,29.88,NW,316,9.0,15.0,86,0.00,,,0.00,weatherlink.com 1.10,2013-03-02 22:16:00,
2013-03-02 17:31:00,23.0,20.0,29.88,NW,306,9.0,11.0,87,0.00,,,0.00,weatherlink.com 1.10,2013-03-02 22:31:00,
2013-03-02 17:46:00,23.0,20.0,29.89,WNW,295,7.0,9.0,87,0.00,,,0.00,weatherlink.com 1.10,2013-03-02 22:46:00,
2013-03-02 18:01:00,22.9,20.0,29.89,WNW,303,7.0,8.0,88,0.00,,,0.00,weatherlink.com 1.10,2013-03-02 23:01:00,
2013-03-02 18:16:00,22.9,20.0,29.89,WNW,287,7.0,9.0,88,0.00,,,0.00,weatherlink.com 1.10,2013-03-02 23:16:00,
2013-03-02 18:31:00,22.8,20.0,29.89,NW,305,4.0,10.0,88,0.00,,,0.00,weatherlink.com 1.10,2013-03-02 23:31:00,
2013-03-02 18:46:00,22.7,20.0,29.89,WNW,302,9.0,11.0,88,0.00,,,0.00,weatherlink.com 1.10,2013-03-02 23:46:00,
2013-03-02 19:01:00,22.7,20.0,29.89,WNW,289,5.0,7.0,89,0.00,,,0.00,weatherlink.com 1.10,2013-03-03 00:01:00,
2013-03-02 19:16:00,22.6,20.0,29.89,WNW,300,5.0,7.0,90,0.00,,,0.00,weatherlink.com 1.10,2013-03-03 00:16:00,
2013-03-02 19:31:00,22.5,20.0,29.89,WNW,303,2.0,6.0,90,0.00,,,0.00,weatherlink.com 1.10,2013-03-03 00:31:00,
2013-03-02 19:46:00,22.4,20.0,29.89,WNW,283,4.0,6.0,91,0.00,,,0.00,weatherlink.com 1.10,2013-03-03 00:46:00,
2013-03-02 20:01:00,22.3,20.0,29.89,West,276,5.0,8.0,92,0.00,,,0.00,weatherlink.com 1.10,2013-03-03 01:01:00,
2013-03-02 20:16:00,22.2,20.0,29.89,WNW,283,6.0,7.0,92,0.00,,,0.00,weatherlink.com 1.10,2013-03-03 01:16:00,
2013-03-02 20:31:00,22.2,20.0,29.88,NW,310,5.0,7.0,92,0.00,,,0.00,weatherlink.com 1.10,2013-03-03 01:31:00,
2013-03-02 20:46:00,22.2,20.0,29.88,WNW,295,3.0,5.0,92,0.00,,,0.00,weatherlink.com 1.10,2013-03-03 01:46:00,
2013-03-02 21:01:00,22.1,20.0,29.88,WNW,293,4.0,6.0,92,0.00,,,0.00,weatherlink.com 1.10,2013-03-03 02:01:00,
2013-03-02 21:16:00,22.1,20.0,29.88,WNW,291,3.0,5.0,92,0.00,,,0.00,weatherlink.com 1.10,2013-03-03 02:16:00,
2013-03-02 21:32:00,22.1,20.0,29.88,WNW,287,3.0,5.0,92,0.00,,,0.00,weatherlink.com 1.10,2013-03-03 02:32:00,
2013-03-02 21:47:00,22.1,20.0,29.88,West,281,3.0,4.0,92,0.00,,,0.00,weatherlink.com 1.10,2013-03-03 02:47:00,
2013-03-02 22:02:00,22.1,20.0,29.88,West,279,4.0,5.0,92,0.00,,,0.00,weatherlink.com 1.10,2013-03-03 03:02:00,
2013-03-02 22:17:00,22.1,20.0,29.87,WNW,287,4.0,6.0,92,0.00,,,0.00,weatherlink.com 1.10,2013-03-03 03:17:00,
2013-03-02 22:32:00,22.2,20.0,29.87,NW,307,2.0,5.0,92,0.00,,,0.00,weatherlink.com 1.10,2013-03-03 03:32:00,
2013-03-02 22:47:00,22.2,20.0,29.87,WNW,303,0.0,4.0,92,0.00,,,0.00,weatherlink.com 1.10,2013-03-03 03:47:00,
2013-03-02 23:02:00,22.2,20.0,29.86,WNW,303,0.0,0.0,92,0.00,,,0.00,weatherlink.com 1.10,2013-03-03 04:02:00,
2013-03-02 23:17:00,22.3,20.0,29.86,WNW,303,0.0,0.0,92,0.00,,,0.00,weatherlink.com 1.10,2013-03-03 04:17:00,
2013-03-02 23:32:00,22.3,20.0,29.86,WNW,303,0.0,0.0,92,0.00,,,0.00,weatherlink.com 1.10,2013-03-03 04:32:00,
2013-03-02 23:47:00,22.3,20.0,29.86,WNW,303,0.0,0.0,92,0.00,,,0.00,weatherlink.com 1.10,2013-03-03 04:47:00,